QFA420 YMML-YSSY

Flight info

Callsign QFA420
Flight time 1h 8m
Altitude 34000
Route DOSEL1 DOSEL Y59 RIVET RIVET4
Aircraft A21N/M-VGDW/C

Departure

Time 2026-05-04 23:39
Airport Melbourne Airport (YMML)

Arrival

Time 2026-05-05 00:47
Airport Sydney Kingsford Smith International Airport (YSSY)
Time Latitude Longitude Altitude Speed Heading
2026-05-04 23:21 -37.67053 144.84621 359 ft 0 kts 172°
2026-05-04 23:24 -37.67044 144.84619 366 ft 2 kts 173°
2026-05-04 23:24 -37.67028 144.84618 365 ft 2 kts 180°
2026-05-04 23:24 -37.67011 144.84621 361 ft 2 kts 214°
2026-05-04 23:25 -37.67004 144.84636 364 ft 1 kts 259°
2026-05-04 23:25 -37.67003 144.84639 364 ft 0 kts 261°
2026-05-04 23:29 -37.67006 144.84620 363 ft 0 kts 261°
2026-05-04 23:29 -37.67007 144.84610 362 ft 2 kts 262°
2026-05-04 23:30 -37.67009 144.84591 362 ft 3 kts 263°
2026-05-04 23:30 -37.67011 144.84572 368 ft 4 kts 263°
2026-05-04 23:30 -37.67014 144.84528 366 ft 6 kts 267°
2026-05-04 23:30 -37.67021 144.84471 372 ft 7 kts 250°
2026-05-04 23:31 -37.67044 144.84408 369 ft 9 kts 256°
2026-05-04 23:31 -37.67055 144.84321 372 ft 11 kts 262°
2026-05-04 23:31 -37.67022 144.84243 375 ft 10 kts 340°
2026-05-04 23:31 -37.66938 144.84222 376 ft 14 kts 351°
2026-05-04 23:32 -37.66823 144.84201 377 ft 19 kts 353°
2026-05-04 23:32 -37.66690 144.84176 378 ft 18 kts 351°
2026-05-04 23:32 -37.66645 144.84167 379 ft 3 kts 354°
2026-05-04 23:32 -37.66595 144.84180 377 ft 12 kts 24°
2026-05-04 23:33 -37.66529 144.84303 370 ft 24 kts 79°
2026-05-04 23:33 -37.66504 144.84498 361 ft 23 kts 81°
2026-05-04 23:33 -37.66481 144.84693 336 ft 21 kts 80°
2026-05-04 23:33 -37.66462 144.84868 332 ft 19 kts 81°
2026-05-04 23:34 -37.66394 144.84944 331 ft 14 kts 351°
2026-05-04 23:34 -37.66351 144.84916 333 ft 0 kts 319°
2026-05-04 23:36 -37.66350 144.84915 333 ft 2 kts 319°
2026-05-04 23:36 -37.66319 144.84882 330 ft 9 kts 322°
2026-05-04 23:36 -37.66258 144.84806 330 ft 14 kts 307°
2026-05-04 23:36 -37.66221 144.84719 333 ft 10 kts 281°
2026-05-04 23:37 -37.66219 144.84690 338 ft 0 kts 272°
2026-05-04 23:37 -37.66218 144.84657 352 ft 21 kts 272°
2026-05-04 23:38 -37.66194 144.84266 366 ft 67 kts 275°
2026-05-04 23:38 -37.66148 144.83478 406 ft 115 kts 274°
2026-05-04 23:38 -37.66070 144.82267 447 ft 156 kts 275°
2026-05-04 23:38 -37.65968 144.80861 727 ft 166 kts 275°
2026-05-04 23:39 -37.65872 144.79378 1139 ft 172 kts 274°
2026-05-04 23:39 -37.65788 144.77826 1493 ft 181 kts 272°
2026-05-04 23:39 -37.65706 144.76218 1856 ft 190 kts 272°
2026-05-04 23:39 -37.65617 144.74520 2207 ft 196 kts 272°
2026-05-04 23:40 -37.65519 144.72719 2490 ft 213 kts 272°
2026-05-04 23:40 -37.65408 144.70800 2851 ft 225 kts 273°
2026-05-04 23:40 -37.65271 144.68801 3223 ft 238 kts 277°
2026-05-04 23:40 -37.64751 144.66754 3587 ft 254 kts 298°
2026-05-04 23:41 -37.63492 144.65089 3930 ft 274 kts 327°
2026-05-04 23:41 -37.61756 144.64174 4289 ft 268 kts 339°
2026-05-04 23:41 -37.59968 144.63516 4661 ft 267 kts 341°
2026-05-04 23:41 -37.58176 144.62884 5024 ft 268 kts 341°
2026-05-04 23:42 -37.56353 144.62359 5368 ft 272 kts 352°
2026-05-04 23:42 -37.54441 144.62558 5734 ft 287 kts 17°
2026-05-04 23:42 -37.52725 144.63833 6078 ft 287 kts 45°
2026-05-04 23:42 -37.51432 144.65729 6452 ft 285 kts 53°
2026-05-04 23:43 -37.50256 144.67718 6799 ft 292 kts 54°
2026-05-04 23:43 -37.49035 144.69807 7125 ft 295 kts 54°
2026-05-04 23:43 -37.47828 144.71876 7472 ft 292 kts 57°
2026-05-04 23:43 -37.46744 144.74062 7822 ft 299 kts 61°
2026-05-04 23:44 -37.45705 144.76323 8169 ft 297 kts 62°
2026-05-04 23:44 -37.44679 144.78582 8528 ft 298 kts 62°
2026-05-04 23:44 -37.43634 144.80877 8893 ft 308 kts 62°
2026-05-04 23:44 -37.42571 144.83205 9240 ft 306 kts 62°
2026-05-04 23:45 -37.41507 144.85529 9613 ft 307 kts 62°
2026-05-04 23:45 -37.40437 144.87862 9987 ft 309 kts 62°
2026-05-04 23:45 -37.39352 144.90224 10336 ft 312 kts 62°
2026-05-04 23:45 -37.38263 144.92594 10667 ft 314 kts 62°
2026-05-04 23:46 -37.37166 144.94978 11005 ft 316 kts 62°
2026-05-04 23:46 -37.36059 144.97379 11349 ft 318 kts 62°
2026-05-04 23:46 -37.34931 144.99830 11693 ft 332 kts 62°
2026-05-04 23:46 -37.33746 145.02402 12008 ft 349 kts 62°
2026-05-04 23:47 -37.32525 145.05048 12299 ft 359 kts 61°
2026-05-04 23:47 -37.31264 145.07777 12605 ft 362 kts 61°
2026-05-04 23:47 -37.29995 145.10519 12915 ft 364 kts 61°
2026-05-04 23:47 -37.28721 145.13269 13224 ft 365 kts 61°
2026-05-04 23:48 -37.27439 145.16036 13542 ft 367 kts 61°
2026-05-04 23:48 -37.26150 145.18814 13859 ft 369 kts 61°
2026-05-04 23:48 -37.24856 145.21603 14158 ft 371 kts 61°
2026-05-04 23:48 -37.23550 145.24414 14448 ft 372 kts 60°
2026-05-04 23:49 -37.22242 145.27228 14740 ft 374 kts 60°
2026-05-04 23:49 -37.20925 145.30057 15020 ft 376 kts 60°
2026-05-04 23:49 -37.19602 145.32900 15319 ft 378 kts 60°
2026-05-04 23:49 -37.18273 145.35752 15611 ft 380 kts 60°
2026-05-04 23:50 -37.16926 145.38613 15907 ft 381 kts 58°
2026-05-04 23:50 -37.15491 145.41381 16207 ft 383 kts 56°
2026-05-04 23:50 -37.13962 145.44140 16515 ft 385 kts 54°
2026-05-04 23:50 -37.12395 145.46869 16802 ft 386 kts 54°
2026-05-04 23:51 -37.10806 145.49600 17113 ft 388 kts 53°
2026-05-04 23:51 -37.09209 145.52336 17429 ft 390 kts 53°
2026-05-04 23:51 -37.07604 145.55096 17743 ft 391 kts 53°
2026-05-04 23:51 -37.06023 145.57824 18055 ft 393 kts 53°
2026-05-04 23:52 -37.04417 145.60602 18381 ft 394 kts 53°
2026-05-04 23:52 -37.02806 145.63396 18686 ft 396 kts 53°
2026-05-04 23:52 -37.01188 145.66203 18943 ft 398 kts 53°
2026-05-04 23:52 -36.99556 145.69033 19222 ft 400 kts 53°
2026-05-04 23:53 -36.97918 145.71870 19514 ft 405 kts 53°
2026-05-04 23:53 -36.96268 145.74727 19800 ft 405 kts 53°
2026-05-04 23:53 -36.94617 145.77581 20093 ft 405 kts 53°
2026-05-04 23:53 -36.92963 145.80439 20403 ft 407 kts 53°
2026-05-04 23:54 -36.91295 145.83317 20701 ft 409 kts 53°
2026-05-04 23:54 -36.89623 145.86202 21000 ft 411 kts 53°
2026-05-04 23:54 -36.87958 145.89069 21284 ft 413 kts 52°
2026-05-04 23:54 -36.86266 145.91980 21593 ft 414 kts 52°
2026-05-04 23:55 -36.84569 145.94900 21903 ft 416 kts 52°
2026-05-04 23:55 -36.82866 145.97824 22224 ft 418 kts 52°
2026-05-04 23:55 -36.79412 146.03752 22855 ft 427 kts 52°
2026-05-04 23:56 -36.77667 146.06743 23189 ft 427 kts 52°
2026-05-04 23:56 -36.75916 146.09744 23486 ft 428 kts 52°
2026-05-04 23:56 -36.74159 146.12751 23816 ft 429 kts 51°
2026-05-04 23:56 -36.72393 146.15770 24089 ft 431 kts 51°
2026-05-04 23:57 -36.70645 146.18756 24363 ft 433 kts 51°
2026-05-04 23:57 -36.68867 146.21790 24648 ft 434 kts 51°
2026-05-04 23:57 -36.67082 146.24833 24924 ft 436 kts 51°
2026-05-04 23:57 -36.65281 146.27897 25213 ft 438 kts 51°
2026-05-04 23:58 -36.63474 146.30971 25503 ft 441 kts 51°
2026-05-04 23:58 -36.61652 146.34069 25787 ft 444 kts 50°
2026-05-04 23:58 -36.59822 146.37177 26082 ft 447 kts 50°
2026-05-04 23:58 -36.57977 146.40307 26380 ft 449 kts 50°
2026-05-04 23:59 -36.56146 146.43411 26684 ft 451 kts 50°
2026-05-04 23:59 -36.54286 146.46562 26997 ft 453 kts 50°
2026-05-04 23:59 -36.52409 146.49739 27291 ft 454 kts 50°
2026-05-04 23:59 -36.50536 146.52907 27601 ft 456 kts 50°
2026-05-05 00:00 -36.48652 146.56090 27840 ft 458 kts 50°
2026-05-05 00:00 -36.48013 146.57168 27929 ft 459 kts 50°
2026-05-05 00:00 -36.44857 146.62492 28368 ft 462 kts 50°
2026-05-05 00:00 -36.42945 146.65713 28633 ft 464 kts 50°
2026-05-05 00:01 -36.41021 146.68950 28912 ft 465 kts 50°
2026-05-05 00:01 -36.39098 146.72184 29175 ft 467 kts 50°
2026-05-05 00:01 -36.37168 146.75428 29435 ft 468 kts 50°
2026-05-05 00:01 -36.35231 146.78677 29696 ft 469 kts 50°
2026-05-05 00:02 -36.33287 146.81937 29918 ft 470 kts 50°
2026-05-05 00:02 -36.31336 146.85204 30153 ft 472 kts 49°
2026-05-05 00:02 -36.29404 146.88437 30369 ft 474 kts 49°
2026-05-05 00:02 -36.27436 146.91728 30550 ft 475 kts 49°
2026-05-05 00:03 -36.25457 146.95034 30742 ft 476 kts 49°
2026-05-05 00:03 -36.23482 146.98329 30934 ft 477 kts 49°
2026-05-05 00:03 -36.21500 147.01633 31109 ft 478 kts 49°
2026-05-05 00:03 -36.19514 147.04940 31301 ft 479 kts 49°
2026-05-05 00:04 -36.17524 147.08251 31494 ft 479 kts 49°
2026-05-05 00:04 -36.15548 147.11537 31695 ft 480 kts 49°
2026-05-05 00:04 -36.13551 147.14850 31899 ft 480 kts 49°
2026-05-05 00:04 -36.11552 147.18165 32103 ft 480 kts 49°
2026-05-05 00:05 -36.09550 147.21479 32303 ft 480 kts 49°
2026-05-05 00:05 -36.07546 147.24794 32493 ft 480 kts 49°
2026-05-05 00:05 -36.05546 147.28101 32691 ft 480 kts 49°
2026-05-05 00:05 -36.03548 147.31401 32899 ft 480 kts 49°
2026-05-05 00:06 -36.01548 147.34703 33105 ft 479 kts 49°
2026-05-05 00:06 -35.99581 147.37948 33317 ft 478 kts 49°
2026-05-05 00:06 -35.97584 147.41239 33526 ft 477 kts 49°
2026-05-05 00:06 -35.95595 147.44515 33740 ft 476 kts 49°
2026-05-05 00:07 -35.93609 147.47781 33954 ft 474 kts 49°
2026-05-05 00:07 -35.91624 147.51045 34155 ft 473 kts 49°
2026-05-05 00:07 -35.89640 147.54299 34210 ft 476 kts 49°
2026-05-05 00:08 -35.85653 147.60826 34207 ft 483 kts 49°
2026-05-05 00:08 -35.81587 147.67476 34204 ft 484 kts 49°
2026-05-05 00:09 -35.77555 147.74066 34205 ft 474 kts 49°
2026-05-05 00:09 -35.73624 147.80483 34212 ft 465 kts 49°
2026-05-05 00:10 -35.69729 147.86816 34209 ft 464 kts 49°
2026-05-05 00:10 -35.65824 147.93143 34191 ft 471 kts 49°
2026-05-05 00:11 -35.61832 147.99607 34209 ft 477 kts 49°
2026-05-05 00:11 -35.57824 148.06092 34209 ft 476 kts 49°
2026-05-05 00:12 -35.53812 148.12576 34208 ft 476 kts 48°
2026-05-05 00:12 -35.49830 148.18993 34203 ft 475 kts 48°
2026-05-05 00:13 -35.45817 148.25452 34205 ft 476 kts 47°
2026-05-05 00:13 -35.41792 148.31915 34199 ft 476 kts 47°
2026-05-05 00:14 -35.37765 148.38364 34195 ft 476 kts 47°
2026-05-05 00:14 -35.33759 148.44770 34192 ft 477 kts 47°
2026-05-05 00:15 -35.29721 148.51216 34186 ft 478 kts 46°
2026-05-05 00:15 -35.25656 148.57692 34192 ft 481 kts 46°
2026-05-05 00:16 -35.21581 148.64178 34164 ft 481 kts 46°
2026-05-05 00:16 -35.18187 148.69569 34189 ft 480 kts 46°
2026-05-05 00:17 -35.14105 148.76042 34194 ft 480 kts 46°
2026-05-05 00:17 -35.10021 148.82518 34185 ft 481 kts 46°
2026-05-05 00:18 -35.05942 148.88958 34174 ft 480 kts 46°
2026-05-05 00:18 -35.01849 148.95401 34191 ft 479 kts 46°
2026-05-05 00:19 -34.97769 149.01819 34192 ft 479 kts 46°
2026-05-05 00:19 -34.93683 149.08238 34192 ft 479 kts 46°
2026-05-05 00:20 -34.89609 149.14624 34195 ft 479 kts 45°
2026-05-05 00:20 -34.85509 149.21043 34198 ft 479 kts 45°
2026-05-05 00:21 -34.81412 149.27443 34200 ft 479 kts 45°
2026-05-05 00:21 -34.77312 149.33839 34198 ft 479 kts 45°
2026-05-05 00:21 -34.75272 149.37025 33744 ft 476 kts 46°
2026-05-05 00:22 -34.73478 149.40442 33091 ft 481 kts 53°
2026-05-05 00:22 -34.71849 149.43927 32558 ft 477 kts 55°
2026-05-05 00:22 -34.70268 149.47456 32062 ft 473 kts 56°
2026-05-05 00:22 -34.68733 149.50971 31557 ft 469 kts 56°
2026-05-05 00:23 -34.67223 149.54465 31072 ft 465 kts 57°
2026-05-05 00:23 -34.65729 149.57924 30587 ft 461 kts 57°
2026-05-05 00:23 -34.64243 149.61354 30083 ft 457 kts 56°
2026-05-05 00:23 -34.62759 149.64760 29433 ft 455 kts 56°
2026-05-05 00:24 -34.61281 149.68141 28873 ft 451 kts 57°
2026-05-05 00:24 -34.59820 149.71477 28412 ft 445 kts 57°
2026-05-05 00:24 -34.58371 149.74778 27906 ft 441 kts 57°
2026-05-05 00:24 -34.56934 149.78045 27404 ft 437 kts 57°
2026-05-05 00:25 -34.55524 149.81248 26923 ft 433 kts 57°
2026-05-05 00:25 -34.54106 149.84464 26441 ft 429 kts 57°
2026-05-05 00:25 -34.52701 149.87652 25982 ft 425 kts 57°
2026-05-05 00:25 -34.51310 149.90806 25504 ft 423 kts 57°
2026-05-05 00:26 -34.49925 149.93941 25026 ft 420 kts 57°
2026-05-05 00:26 -34.48547 149.97054 24587 ft 417 kts 57°
2026-05-05 00:26 -34.47181 150.00137 24173 ft 413 kts 58°
2026-05-05 00:26 -34.45828 150.03189 23727 ft 409 kts 58°
2026-05-05 00:27 -34.44502 150.06180 23182 ft 407 kts 58°
2026-05-05 00:27 -34.43164 150.09194 22600 ft 405 kts 58°
2026-05-05 00:27 -34.41832 150.12191 22078 ft 403 kts 58°
2026-05-05 00:27 -34.40506 150.15174 21595 ft 400 kts 58°
2026-05-05 00:28 -34.39188 150.18137 21029 ft 398 kts 58°
2026-05-05 00:28 -34.37873 150.21087 20488 ft 397 kts 58°
2026-05-05 00:28 -34.36566 150.24022 19990 ft 395 kts 58°
2026-05-05 00:28 -34.35265 150.26942 19525 ft 393 kts 59°
2026-05-05 00:29 -34.33971 150.29841 19021 ft 390 kts 59°
2026-05-05 00:29 -34.32689 150.32714 18613 ft 386 kts 59°
2026-05-05 00:29 -34.31413 150.35566 18110 ft 383 kts 59°
2026-05-05 00:29 -34.30150 150.38392 17614 ft 380 kts 59°
2026-05-05 00:30 -34.28895 150.41196 17142 ft 377 kts 59°
2026-05-05 00:30 -34.27653 150.43972 16661 ft 374 kts 59°
2026-05-05 00:30 -34.26421 150.46728 16203 ft 371 kts 59°
2026-05-05 00:30 -34.25213 150.49430 15674 ft 371 kts 59°
2026-05-05 00:31 -34.23989 150.52165 15187 ft 368 kts 59°
2026-05-05 00:31 -34.22777 150.54872 14757 ft 364 kts 59°
2026-05-05 00:31 -34.21577 150.57549 14332 ft 361 kts 59°
2026-05-05 00:31 -34.20388 150.60202 13962 ft 355 kts 59°
2026-05-05 00:32 -34.19233 150.62779 13753 ft 343 kts 59°
2026-05-05 00:32 -34.18114 150.65272 13507 ft 333 kts 59°
2026-05-05 00:32 -34.17014 150.67716 13129 ft 328 kts 59°
2026-05-05 00:32 -34.15928 150.70128 12718 ft 325 kts 59°
2026-05-05 00:33 -34.14854 150.72512 12315 ft 321 kts 60°
2026-05-05 00:33 -34.13788 150.74879 11913 ft 318 kts 60°
2026-05-05 00:33 -34.12730 150.77223 11473 ft 318 kts 59°
2026-05-05 00:33 -34.11690 150.79526 11076 ft 316 kts 59°
2026-05-05 00:34 -34.10645 150.81844 10680 ft 313 kts 59°
2026-05-05 00:34 -34.09609 150.84143 10318 ft 310 kts 59°
2026-05-05 00:34 -34.08586 150.86418 10186 ft 308 kts 60°
2026-05-05 00:34 -34.07564 150.88688 9877 ft 308 kts 60°
2026-05-05 00:35 -34.06543 150.90956 9395 ft 307 kts 60°
2026-05-05 00:35 -34.05527 150.93210 8987 ft 304 kts 60°
2026-05-05 00:35 -34.04525 150.95434 8615 ft 299 kts 60°
2026-05-05 00:35 -34.03604 150.97666 8225 ft 296 kts 70°
2026-05-05 00:36 -34.03291 151.00096 7726 ft 295 kts 97°
2026-05-05 00:36 -34.03928 151.02396 7318 ft 288 kts 125°
2026-05-05 00:36 -34.05170 151.04262 6923 ft 284 kts 135°
2026-05-05 00:36 -34.06515 151.05957 6515 ft 281 kts 137°
2026-05-05 00:37 -34.07987 151.07419 6321 ft 267 kts 154°
2026-05-05 00:37 -34.09665 151.08195 6115 ft 254 kts 168°
2026-05-05 00:37 -34.11359 151.08665 5850 ft 246 kts 171°
2026-05-05 00:37 -34.13029 151.09078 5530 ft 243 kts 172°
2026-05-05 00:38 -34.14674 151.09486 5177 ft 240 kts 171°
2026-05-05 00:38 -34.16308 151.09897 4796 ft 239 kts 171°
2026-05-05 00:38 -34.17925 151.10309 4435 ft 236 kts 171°
2026-05-05 00:38 -34.19530 151.10724 4017 ft 236 kts 172°
2026-05-05 00:39 -34.21135 151.11142 3612 ft 235 kts 172°
2026-05-05 00:39 -34.22725 151.11598 3235 ft 236 kts 165°
2026-05-05 00:39 -34.24071 151.12718 2887 ft 246 kts 132°
2026-05-05 00:39 -34.24800 151.14551 2877 ft 237 kts 103°
2026-05-05 00:40 -34.24798 151.16458 2997 ft 223 kts 82°
2026-05-05 00:40 -34.24310 151.18202 2980 ft 216 kts 60°
2026-05-05 00:40 -34.23411 151.19617 2994 ft 209 kts 44°
2026-05-05 00:40 -34.22346 151.20858 2986 ft 218 kts 37°
2026-05-05 00:41 -34.21105 151.21881 3005 ft 215 kts 23°
2026-05-05 00:41 -34.19729 151.22596 2982 ft 216 kts 16°
2026-05-05 00:41 -34.18288 151.22992 2974 ft 209 kts 360°
2026-05-05 00:41 -34.16882 151.23082 2967 ft 199 kts 355°
2026-05-05 00:42 -34.15529 151.23068 2970 ft 189 kts 351°
2026-05-05 00:42 -34.14262 151.22958 2970 ft 177 kts 347°
2026-05-05 00:42 -34.13077 151.22783 2939 ft 166 kts 345°
2026-05-05 00:42 -34.11956 151.22601 2857 ft 158 kts 345°
2026-05-05 00:43 -34.10863 151.22436 2805 ft 159 kts 344°
2026-05-05 00:43 -34.09782 151.22257 2720 ft 157 kts 342°
2026-05-05 00:43 -34.08636 151.22023 2678 ft 173 kts 340°
2026-05-05 00:43 -34.07492 151.21634 2466 ft 169 kts 333°
2026-05-05 00:44 -34.06415 151.21188 2308 ft 160 kts 335°
2026-05-05 00:44 -34.05362 151.20820 2057 ft 158 kts 338°
2026-05-05 00:44 -34.04329 151.20453 1793 ft 152 kts 336°
2026-05-05 00:44 -34.03320 151.20105 1636 ft 149 kts 337°
2026-05-05 00:45 -34.02350 151.19794 1490 ft 141 kts 340°
2026-05-05 00:45 -34.01388 151.19506 1191 ft 142 kts 341°
2026-05-05 00:45 -34.00431 151.19191 976 ft 146 kts 338°
2026-05-05 00:45 -33.99433 151.18887 773 ft 151 kts 342°
2026-05-05 00:46 -33.98414 151.18602 540 ft 151 kts 340°
2026-05-05 00:46 -33.97409 151.18315 351 ft 146 kts 341°
2026-05-05 00:46 -33.96404 151.18065 101 ft 148 kts 340°
2026-05-05 00:46 -33.95452 151.17806 25 ft 119 kts 349°
2026-05-05 00:47 -33.94772 151.17637 27 ft 76 kts 347°
2026-05-05 00:47 -33.94411 151.17539 27 ft 40 kts 340°
2026-05-05 00:47 -33.94157 151.17478 27 ft 36 kts 348°
2026-05-05 00:47 -33.93950 151.17434 21 ft 15 kts
2026-05-05 00:48 -33.93906 151.17512 23 ft 9 kts 74°
2026-05-05 00:48 -33.93901 151.17536 22 ft 0 kts 75°
2026-05-05 00:49 -33.93900 151.17539 22 ft 1 kts 75°
2026-05-05 00:50 -33.93898 151.17551 22 ft 0 kts 75°
2026-05-05 00:51 -33.93896 151.17557 22 ft 2 kts 75°
2026-05-05 00:51 -33.93890 151.17583 22 ft 5 kts 74°
2026-05-05 00:51 -33.93877 151.17636 23 ft 8 kts 71°
2026-05-05 00:52 -33.93857 151.17713 22 ft 10 kts 72°
2026-05-05 00:52 -33.93810 151.17774 28 ft 11 kts 22°
2026-05-05 00:52 -33.93747 151.17792 30 ft 7 kts 10°
2026-05-05 00:52 -33.93727 151.17796 32 ft 0 kts 10°
2026-05-05 00:53 -33.93726 151.17797 32 ft 1 kts 10°
2026-05-05 00:53 -33.93721 151.17798 33 ft 2 kts 10°
2026-05-05 00:53 -33.93691 151.17804 33 ft 8 kts
2026-05-05 00:54 -33.93613 151.17820 32 ft 14 kts 10°
2026-05-05 00:54 -33.93532 151.17839 33 ft 10 kts 19°
2026-05-05 00:54 -33.93518 151.17871 34 ft 6 kts 95°
2026-05-05 00:54 -33.93522 151.17908 34 ft 0 kts 98°